Dewpoint
-0 -2 -5 -6 -7 -6 -6 -4 -1 1 1 -3 -5 -4 -4 -2 1 0 -1 -5 -6 -2 1 3 9 9 9 8 6 7 7 8 9
2 -1 -5 -6 -6 -6 -5 -5 -4 -3 -2 -0 1 2 4 6 6 6 4 3 1 -3 -2 2 8 10 9 9 10 9 10 10 10
4 1 -1 -1 -1 -1 -0 1 1 2 3 4 6 5 7 8 8 8 8 8 8 8 7 5 4 9 10 8 8 8 8 9 9
3 1 2 2 2 2 2 3 3 4 5 6 7 8 9 9 10 10 10 10 10 9 9 9 9 7 8 9 8 8 8 4 4
3 4 4 4 4 4 5 5 6 7 8 8 9 10 10 10 10 10 10 10 10 10 10 10 9 9 9 10 9 9 9 9 8
6 7 7 6 6 6 7 8 8 9 9 10 10 10 10 9 9 9 9 9 9 9 9 10 10 10 10 10 10 10 10 10 9
7 8 7 7 7 8 9 9 10 10 10 10 10 9 9 9 9 9 9 9 9 8 8 8 8 10 11 10 10 10 10 10 10
7 7 7 8 8 9 10 10 10 10 10 10 9 9 9 10 10 10 9 8 8 7 8 8 8 8 8 8 9 10 10 10 10
8 8 8 8 9 10 10 10 10 9 9 9 9 8 8 8 9 7 4 4 4 5 6 6 6 6 5 6 7 7 8 10 10
9 9 9 9 10 10 10 9 9 9 9 8 8 8 6 1 -3 -3 -4 -4 -3 -2 -0 0 -0 -1 -1 0 3 5 7 8 8
10 10 10 11 11 10 9 9 9 9 8 7 6 -1 -4 -5 -6 -7 -8 -9 -8 -7 -6 -6 -4 -3 -1 1 2 3 4 6 6
10 11 10 10 10 10 9 9 7 2 -2 -3 -4 -5 -5 -6 -7 -8 -10 -9 -6 -4 -3 -3 -4 -5 -4 -2 0 2 2 3 3
10 10 10 9 9 9 4 -2 -3 -3 -4 -4 -5 -6 -7 -7 -9 -9 -8 -5 -4 -6 -8 -10 -12 -12 -11 -10 -10 -10 -11 -9 -6
11 10 10 10 8 -2 -3 -4 -4 -5 -7 -8 -8 -9 -10 -11 -12 -11 -10 -13 -13 -13 -19 -21 -22 -24 -23 -23 -24 -27 -29 -29 -26
10 9 9 -2 -2 -3 -2 -3 -6 -8 -9 -10 -11 -12 -13 -14 -12 -12 -14 -13 -14 -19 -23 -27 -30 -30 -32 -32 -33 -33 -32 -31 -30
9 4 -2 -3 -1 -1 -3 -6 -9 -10 -11 -12 -13 -16 -15 -19 -17 -15 -12 -15 -23 -24 -26 -29 -31 -32 -33 -33 -33 -33 -33 -32 -24
1 -2 -2 -1 -1 -2 -5 -9 -11 -13 -13 -16 -19 -21 -22 -17 -17 -23 -24 -23 -24 -27 -29 -31 -32 -33 -33 -33 -34 -33 -32 -29 -15
-2 -2 -1 -1 -2 -4 -9 -12 -13 -14 -18 -22 -22 -21 -20 -21 -21 -23 -24 -24 -27 -29 -30 -31 -31 -32 -32 -31 -31 -31 -30 -23 -6
-1 -1 -1 -1 -4 -9 -12 -13 -15 -19 -22 -21 -20 -20 -20 -20 -20 -23 -26 -26 -27 -28 -28 -29 -30 -30 -30 -30 -28 -27 -26 -9 -5
-1 -0 -1 -3 -8 -12 -13 -16 -20 -23 -21 -20 -21 -23 -24 -22 -15 -17 -23 -26 -26 -26 -28 -29 -29 -29 -28 -26 -24 -20 -8 -6 -5
Wind_Speed
4 4 5 5 5 5 3 3 3 4 4 4 3 4 5 6 6 6 6 7 7 9 9 10 9 10 11 11 14 16 17 17 16
5 4 6 7 8 8 7 7 5 3 3 2 3 4 5 6 6 7 7 7 6 7 7 7 7 11 11 12 13 13 14 15 16
3 3 6 7 7 7 7 7 6 5 5 4 3 4 4 6 6 7 6 7 7 7 6 6 7 8 13 12 12 16 16 16 18
2 3 5 5 5 6 6 5 4 4 3 4 4 4 5 6 6 6 7 7 8 9 9 9 10 7 11 13 13 12 12 14 17
3 3 3 4 4 5 4 4 4 4 4 4 5 6 6 7 7 8 8 9 9 10 12 12 11 11 11 11 13 15 17 16 16
4 3 2 3 3 4 4 3 3 3 4 4 6 8 9 10 11 11 11 11 12 13 14 17 17 17 17 16 18 19 19 19 20
5 2 2 2 2 2 2 3 4 5 6 7 10 12 12 13 13 14 15 15 15 15 17 18 20 18 17 18 19 20 21 23 22
4 3 3 2 1 2 3 4 7 8 9 10 12 13 15 17 17 18 18 18 18 18 18 19 21 21 20 21 19 19 20 21 24
4 3 3 3 4 5 6 7 9 9 11 13 15 17 19 20 20 20 21 20 19 19 20 21 22 22 22 21 22 25 24 20 20
5 5 5 5 7 7 7 8 11 13 15 17 17 19 21 20 20 21 22 22 21 20 21 21 22 23 23 22 22 23 22 23 24
5 6 7 8 9 8 9 12 15 16 16 17 19 19 20 22 23 22 22 21 20 19 19 20 21 22 21 21 22 24 25 26 26
5 5 10 10 8 10 12 15 16 16 17 18 19 20 21 22 22 21 19 18 16 16 16 16 17 19 19 21 23 24 25 27 28
6 7 7 10 12 13 12 14 17 19 21 21 20 21 21 21 20 18 16 14 15 15 17 19 21 22 23 25 26 27 29 31 32
8 8 11 10 10 10 13 17 20 22 22 22 19 19 18 17 16 14 13 15 15 15 22 23 23 25 26 28 29 30 31 33 34
8 10 8 7 8 11 14 17 20 21 22 20 17 16 12 11 9 14 16 12 17 24 24 24 27 28 29 30 32 31 33 34 35
8 7 6 6 9 13 17 18 18 18 19 20 19 11 3 15 14 10 16 21 25 25 22 27 30 30 30 31 32 33 34 35 34
8 7 6 8 12 16 18 17 16 17 20 21 19 12 12 3 7 24 21 23 21 30 28 31 31 30 31 33 34 35 35 33 30
9 7 7 10 14 16 17 16 15 15 17 19 14 8 6 31 11 30 17 28 31 36 37 36 33 34 33 33 34 35 35 33 28
8 6 8 12 14 15 14 15 16 17 18 17 16 14 15 12 19 21 39 34 43 44 41 39 37 33 34 34 34 34 34 30 31
6 6 10 13 13 14 13 14 16 18 19 20 20 20 19 17 16 34 41 48 46 44 43 40 36 35 36 36 35 33 29 31 32
Wind_Direction
110 108 85 80 81 92 115 148 189 225 256 290 349 12 20 30 19 9 349 330 304 285 274 258 275 283 299 297 261 254 255 263 276
82 76 80 77 76 80 84 85 86 104 102 75 53 37 32 27 26 24 19 10 356 328 291 282 266 265 270 283 281 274 272 280 283
95 74 83 81 78 75 71 72 73 67 57 30 15 17 8 5 8 7 7 3 357 353 340 311 289 248 284 283 264 265 262 266 274
111 80 75 73 73 75 72 64 56 47 34 22 11 5 357 360 3 3 3 347 337 331 327 324 318 289 256 271 289 295 289 277 265
153 128 101 72 62 61 47 46 37 33 27 15 353 347 335 329 325 319 311 303 305 308 308 305 304 297 290 282 293 298 296 294 284
156 144 106 99 72 56 57 39 20 3 351 340 322 315 311 309 309 305 299 306 307 300 291 292 288 284 280 280 280 282 284 286 285
181 189 160 135 81 62 25 350 328 316 319 320 320 317 315 309 304 300 298 300 300 291 292 294 295 296 297 294 291 285 282 280 281
193 187 196 204 254 291 304 318 316 315 319 323 326 318 314 309 303 302 301 299 298 294 291 287 287 288 291 291 297 294 288 279 277
211 208 232 260 290 305 308 324 319 322 323 317 312 304 305 305 302 301 300 299 297 295 293 289 289 289 285 285 284 288 284 286 283
237 266 281 288 300 306 304 311 305 303 303 298 297 298 300 300 299 298 297 296 294 290 287 290 286 285 286 284 282 280 278 277 279
268 293 295 292 294 281 288 290 298 295 297 298 299 301 300 300 299 299 297 297 297 295 293 292 291 292 291 285 282 281 279 278 278
271 299 303 291 290 291 295 298 299 301 301 300 299 298 297 297 298 296 295 295 297 297 301 302 300 298 293 288 286 285 283 282 281
269 286 300 289 289 297 302 303 303 302 302 301 301 300 299 297 294 290 289 291 295 297 301 302 302 298 294 291 289 287 286 282 280
247 279 291 280 284 297 305 307 308 306 304 305 308 304 301 293 284 279 287 295 296 304 308 305 302 300 298 295 292 291 288 285 282
247 278 270 266 290 305 311 314 315 315 318 322 325 320 308 294 279 282 285 296 296 309 308 307 306 305 305 302 298 296 291 289 288
250 239 243 276 300 312 322 326 324 322 326 332 333 337 348 297 287 298 281 305 302 300 302 308 309 308 306 302 298 294 292 290 288
216 219 252 292 316 324 328 330 336 341 341 347 348 343 340 210 298 292 295 292 298 306 312 315 315 315 311 306 302 300 298 297 297
205 231 279 313 324 327 332 335 339 344 346 348 359 343 315 316 319 314 312 312 313 317 320 321 324 320 316 312 308 306 305 303 301
215 260 305 319 327 334 336 337 340 341 341 344 343 336 322 317 315 311 313 318 318 322 323 324 325 323 317 313 310 307 305 303 300
234 293 315 326 334 336 336 336 336 337 336 337 335 330 325 321 293 306 313 315 319 320 322 322 323 322 317 315 312 312 303 302 299
Height
1514 1515 1514 1514 1515 1514 1515 1516 1517 1519 1519 1520 1519 1519 1518 1517 1518 1517 1517 1517 1517 1517 1517 1518 1518 1518 1518 1518 1518 1518 1518 1518 1519
1516 1516 1515 1515 1516 1516 1516 1516 1516 1518 1518 1519 1519 1518 1518 1518 1517 1517 1516 1516 1515 1515 1515 1515 1515 1517 1516 1517 1517 1516 1516 1516 1515
1516 1518 1516 1517 1517 1516 1517 1517 1517 1518 1517 1518 1519 1518 1518 1518 1517 1516 1516 1515 1515 1514 1513 1513 1512 1513 1514 1513 1513 1513 1513 1513 1514
1517 1519 1518 1517 1517 1517 1517 1517 1518 1518 1518 1517 1518 1518 1518 1517 1516 1516 1515 1514 1514 1513 1513 1512 1511 1510 1510 1511 1510 1510 1510 1509 1509
1517 1519 1519 1518 1518 1517 1518 1517 1518 1518 1518 1517 1518 1517 1517 1516 1515 1514 1513 1512 1512 1511 1511 1510 1509 1508 1507 1507 1507 1507 1506 1506 1505
1517 1518 1519 1518 1519 1518 1518 1518 1518 1518 1517 1516 1516 1516 1515 1514 1513 1512 1511 1511 1510 1510 1508 1507 1506 1505 1504 1504 1503 1503 1502 1502 1501
1517 1517 1518 1518 1518 1518 1518 1517 1518 1517 1516 1515 1515 1514 1513 1513 1511 1510 1509 1508 1507 1506 1506 1504 1502 1501 1500 1500 1499 1498 1498 1497 1497
1516 1516 1517 1517 1516 1518 1518 1517 1517 1516 1514 1513 1512 1511 1510 1510 1508 1507 1506 1505 1504 1503 1502 1501 1499 1498 1498 1497 1495 1493 1492 1492 1491
1516 1515 1515 1515 1516 1517 1517 1515 1515 1515 1513 1511 1510 1508 1507 1506 1504 1503 1501 1500 1500 1499 1498 1496 1495 1494 1493 1492 1490 1489 1488 1488 1486
1514 1515 1514 1514 1515 1515 1515 1514 1513 1513 1510 1509 1507 1506 1504 1502 1501 1499 1497 1496 1496 1494 1493 1492 1490 1488 1488 1487 1486 1484 1483 1482 1481
1513 1514 1513 1514 1514 1514 1512 1512 1511 1509 1507 1505 1504 1502 1500 1499 1497 1495 1493 1492 1491 1490 1489 1487 1486 1485 1484 1482 1481 1480 1478 1477 1476
1511 1512 1511 1512 1511 1511 1510 1509 1508 1506 1504 1502 1501 1499 1497 1495 1493 1491 1489 1488 1487 1486 1485 1484 1482 1481 1480 1478 1477 1475 1474 1472 1470
1508 1509 1509 1511 1510 1508 1506 1506 1504 1502 1500 1498 1496 1494 1493 1490 1488 1487 1486 1485 1484 1483 1482 1480 1479 1477 1475 1473 1471 1469 1467 1465 1464
1507 1506 1506 1507 1507 1506 1504 1503 1501 1498 1496 1494 1492 1490 1488 1487 1485 1484 1483 1482 1481 1480 1478 1476 1474 1472 1469 1467 1465 1463 1460 1458 1456
1504 1504 1504 1505 1504 1503 1501 1500 1497 1494 1491 1489 1487 1485 1483 1482 1482 1481 1480 1480 1478 1476 1474 1472 1470 1467 1464 1462 1459 1456 1453 1450 1448
1502 1502 1502 1503 1502 1501 1498 1495 1494 1491 1488 1484 1484 1482 1480 1480 1479 1478 1477 1476 1475 1473 1471 1468 1464 1462 1458 1455 1452 1449 1446 1443 1440
1500 1500 1501 1501 1499 1497 1494 1492 1491 1489 1486 1483 1479 1477 1477 1476 1477 1475 1475 1472 1470 1468 1466 1462 1459 1455 1452 1448 1444 1440 1437 1434 1432
1498 1498 1498 1497 1496 1494 1492 1490 1489 1488 1486 1484 1484 1480 1477 1471 1467 1467 1466 1465 1461 1460 1457 1454 1451 1448 1443 1440 1436 1432 1429 1425 1424
1496 1496 1495 1495 1493 1491 1490 1489 1487 1485 1485 1483 1482 1480 1478 1473 1462 1459 1458 1455 1452 1449 1447 1445 1443 1440 1436 1432 1428 1424 1420 1418 1416
1493 1493 1493 1492 1490 1489 1488 1487 1485 1484 1483 1480 1478 1476 1474 1472 1467 1453 1448 1446 1445 1443 1440 1438 1436 1433 1428 1424 1419 1416 1413 1410 1407